Location: Corralito
(10.2667°N, 66.9500°W)
Time: 23:59:50
(UTC+00:00)

SEDSat Delta rocket - Visible Passes

Search period start: 04 December 2023 00:00
Search period end: 14 December 2023 00:00
Orbit: 531 x 987 km, 31.4° (Epoch: 04 December)

Date Brightness Start Highest point End Pass type
(mag) Time Alt. Az. Time Alt. Az. Time Alt. Az.
08 Dec 5.8 23:55:19 10° NNW 23:55:27 10° NNW 23:55:27 10° NNW visible
09 Dec 5.2 23:12:12 10° NNW 23:15:00 14° NNE 23:15:12 14° NNE visible
10 Dec 5.3 22:29:01 10° NNW 22:31:36 13° NNE 22:34:04 10° NE visible
11 Dec 5.5 00:13:44 10° NW 00:15:04 17° NW 00:15:04 17° NW visible
11 Dec 4.2 23:30:28 10° NW 23:35:06 32° NNE 23:35:06 32° NNE visible
12 Dec 4.5 22:47:11 10° NW 22:52:06 28° NNE 22:55:18 16° ENE visible
13 Dec 5.3 00:33:10 10° WNW 00:35:19 23° WNW 00:35:19 23° WNW visible
